Time,TemperatureF,DewpointF,PressureIn,WindDirection,WindDirectionDegrees,WindSpeedMPH,WindSpeedGustMPH,Humidity,HourlyPrecipIn,Conditions,Clouds,dailyrainin,SoftwareType,DateUTC
2013-04-01 00:24:00,43.0,-99.9,29.73,ESE,115,-999.0,-999.0,-999,-99.99,,,-99.99,,2013-04-01 04:24:00,
2013-04-01 00:33:00,43.0,-99.9,29.73,ESE,115,-999.0,-999.0,-999,-99.99,,,-99.99,,2013-04-01 04:33:00,
2013-04-01 00:44:00,43.0,-99.9,29.73,ESE,115,-999.0,-999.0,-999,-99.99,,,-99.99,,2013-04-01 04:44:00,
2013-04-01 00:52:00,43.0,-99.9,29.72,ESE,115,-999.0,-999.0,-999,-99.99,,,-99.99,,2013-04-01 04:52:00,
2013-04-01 01:23:00,43.0,-99.9,29.72,ESE,115,-999.0,-999.0,-999,-99.99,,,-99.99,,2013-04-01 05:23:00,
2013-04-01 01:33:00,43.0,-99.9,29.72,ESE,115,-999.0,-999.0,-999,-99.99,,,-99.99,,2013-04-01 05:33:00,
2013-04-01 01:43:00,43.0,-99.9,29.72,ESE,115,-999.0,-999.0,-999,-99.99,,,-99.99,,2013-04-01 05:43:00,
2013-04-01 01:52:00,42.0,-99.9,29.70,ESE,115,-999.0,-999.0,-999,-99.99,,,-99.99,,2013-04-01 05:52:00,
2013-04-01 02:34:00,42.0,-99.9,29.70,ESE,115,-999.0,-999.0,-999,-99.99,,,-99.99,,2013-04-01 06:34:00,
2013-04-01 02:43:00,42.0,-99.9,29.70,ESE,115,-999.0,-999.0,-999,-99.99,,,-99.99,,2013-04-01 06:43:00,
2013-04-01 02:52:00,43.0,-99.9,29.72,ESE,115,-999.0,-999.0,-999,-99.99,,,-99.99,,2013-04-01 06:52:00,
2013-04-01 03:22:00,43.0,-99.9,29.72,ESE,115,-999.0,-999.0,-999,-99.99,,,-99.99,,2013-04-01 07:22:00,
2013-04-01 03:32:00,43.0,-99.9,29.72,ESE,115,-999.0,-999.0,-999,-99.99,,,-99.99,,2013-04-01 07:32:00,
2013-04-01 03:43:00,43.0,-99.9,29.72,ESE,115,-999.0,-999.0,-999,-99.99,,,-99.99,,2013-04-01 07:43:00,
2013-04-01 03:52:00,43.0,-99.9,29.72,ESE,115,-999.0,-999.0,-999,-99.99,,,-99.99,,2013-04-01 07:52:00,
2013-04-01 04:22:00,43.0,-99.9,29.72,ESE,115,-999.0,-999.0,-999,-99.99,,,-99.99,,2013-04-01 08:22:00,
2013-04-01 04:32:00,43.0,-99.9,29.72,ESE,115,-999.0,-999.0,-999,-99.99,,,-99.99,,2013-04-01 08:32:00,
2013-04-01 04:44:00,43.0,-99.9,29.72,ESE,115,-999.0,-999.0,-999,-99.99,,,-99.99,,2013-04-01 08:44:00,
2013-04-01 05:52:00,42.0,-99.9,29.72,ESE,115,-999.0,-999.0,-999,-99.99,,,-99.99,,2013-04-01 09:52:00,
2013-04-01 06:24:00,42.0,-99.9,29.72,ESE,115,-999.0,-999.0,-999,-99.99,,,-99.99,,2013-04-01 10:24:00,
2013-04-01 06:34:00,42.0,-99.9,29.72,ESE,115,-999.0,-999.0,-999,-99.99,,,-99.99,,2013-04-01 10:34:00,
2013-04-01 06:43:00,42.0,-99.9,29.72,ESE,115,-999.0,-999.0,-999,-99.99,,,-99.99,,2013-04-01 10:43:00,
2013-04-01 06:52:00,42.0,-99.9,29.72,ESE,115,-999.0,-999.0,-999,-99.99,,,-99.99,,2013-04-01 10:52:00,
2013-04-01 07:23:00,42.0,-99.9,29.72,ESE,115,-999.0,-999.0,-999,-99.99,,,-99.99,,2013-04-01 11:23:00,
2013-04-01 07:33:00,42.0,-99.9,29.72,ESE,115,-999.0,-999.0,-999,-99.99,,,-99.99,,2013-04-01 11:33:00,
2013-04-01 07:43:00,42.0,-99.9,29.72,ESE,115,-999.0,-999.0,-999,-99.99,,,-99.99,,2013-04-01 11:43:00,
2013-04-01 07:52:00,43.0,-99.9,29.72,WSW,238,-999.0,-999.0,-999,-99.99,,,-99.99,,2013-04-01 11:52:00,
2013-04-01 08:23:00,43.0,-99.9,29.72,WSW,238,-999.0,-999.0,-999,-99.99,,,-99.99,,2013-04-01 12:23:00,
2013-04-01 08:33:00,43.0,-99.9,29.72,WSW,238,-999.0,-999.0,-999,-99.99,,,-99.99,,2013-04-01 12:33:00,
2013-04-01 08:43:00,43.0,-99.9,29.72,WSW,238,-999.0,-999.0,-999,-99.99,,,-99.99,,2013-04-01 12:43:00,
2013-04-01 08:52:00,44.0,-99.9,29.71,WSW,238,-999.0,-999.0,-999,-99.99,,,-99.99,,2013-04-01 12:52:00,
2013-04-01 09:23:00,44.0,-99.9,29.71,WSW,238,-999.0,-999.0,-999,-99.99,,,-99.99,,2013-04-01 13:23:00,
2013-04-01 09:33:00,44.0,-99.9,29.71,WSW,238,-999.0,-999.0,-999,-99.99,,,-99.99,,2013-04-01 13:33:00,
2013-04-01 09:43:00,44.0,-99.9,29.71,WSW,238,-999.0,-999.0,-999,-99.99,,,-99.99,,2013-04-01 13:43:00,
2013-04-01 09:52:00,46.0,-99.9,29.70,WSW,238,-999.0,-999.0,-999,-99.99,,,-99.99,,2013-04-01 13:52:00,
2013-04-01 10:23:00,46.0,-99.9,29.70,WSW,238,-999.0,-999.0,-999,-99.99,,,-99.99,,2013-04-01 14:23:00,
2013-04-01 10:33:00,46.0,-99.9,29.70,WSW,238,-999.0,-999.0,-999,-99.99,,,-99.99,,2013-04-01 14:33:00,
2013-04-01 10:43:00,46.0,-99.9,29.70,WSW,238,-999.0,-999.0,-999,-99.99,,,-99.99,,2013-04-01 14:43:00,
2013-04-01 10:52:00,54.0,-99.9,29.69,SW,228,9.0,14.0,-999,-99.99,,,-99.99,,2013-04-01 14:52:00,
2013-04-01 11:23:00,54.0,-99.9,29.69,SW,228,9.0,14.0,-999,-99.99,,,-99.99,,2013-04-01 15:23:00,
2013-04-01 11:34:00,54.0,-99.9,29.69,SW,228,9.0,14.0,-999,-99.99,,,-99.99,,2013-04-01 15:34:00,
2013-04-01 11:44:00,54.0,-99.9,29.69,SW,228,9.0,14.0,-999,-99.99,,,-99.99,,2013-04-01 15:44:00,
2013-04-01 11:52:00,57.0,-99.9,29.67,WSW,238,5.0,18.0,-999,-99.99,,,-99.99,,2013-04-01 15:52:00,
2013-04-01 12:23:00,57.0,-99.9,29.67,WSW,238,5.0,18.0,-999,-99.99,,,-99.99,,2013-04-01 16:23:00,
2013-04-01 12:33:00,57.0,-99.9,29.67,WSW,238,5.0,18.0,-999,-99.99,,,-99.99,,2013-04-01 16:33:00,
2013-04-01 12:43:00,57.0,-99.9,29.67,WSW,238,5.0,18.0,-999,-99.99,,,-99.99,,2013-04-01 16:43:00,
2013-04-01 12:52:00,57.0,-99.9,29.67,East,93,4.0,11.0,-999,-99.99,,,-99.99,,2013-04-01 16:52:00,
2013-04-01 13:23:00,57.0,-99.9,29.67,East,93,4.0,11.0,-999,-99.99,,,-99.99,,2013-04-01 17:23:00,
2013-04-01 13:32:00,57.0,-99.9,29.67,East,93,4.0,11.0,-999,-99.99,,,-99.99,,2013-04-01 17:32:00,
2013-04-01 13:42:00,57.0,-99.9,29.67,East,93,4.0,11.0,-999,-99.99,,,-99.99,,2013-04-01 17:42:00,
2013-04-01 13:52:00,55.0,-99.9,29.69,SSE,150,3.0,13.0,-999,-99.99,,,-99.99,,2013-04-01 17:52:00,
2013-04-01 14:33:00,55.0,-99.9,29.69,SSE,150,3.0,13.0,-999,-99.99,,,-99.99,,2013-04-01 18:33:00,
2013-04-01 14:43:00,55.0,-99.9,29.69,SSE,150,3.0,13.0,-999,-99.99,,,-99.99,,2013-04-01 18:43:00,
2013-04-01 14:52:00,51.0,-99.9,29.72,NW,316,7.0,14.0,-999,-99.99,,,-99.99,,2013-04-01 18:52:00,
2013-04-01 15:33:00,51.0,-99.9,29.72,NW,316,7.0,14.0,-999,-99.99,,,-99.99,,2013-04-01 19:33:00,
2013-04-01 15:43:00,51.0,-99.9,29.72,NW,316,7.0,14.0,-999,-99.99,,,-99.99,,2013-04-01 19:43:00,
2013-04-01 15:52:00,47.0,-99.9,29.73,North,10,3.0,12.0,-999,-99.99,,,-99.99,,2013-04-01 19:52:00,
2013-04-01 16:23:00,47.0,-99.9,29.73,North,10,3.0,12.0,-999,-99.99,,,-99.99,,2013-04-01 20:23:00,
2013-04-01 16:33:00,47.0,-99.9,29.73,North,10,3.0,12.0,-999,-99.99,,,-99.99,,2013-04-01 20:33:00,
2013-04-01 16:43:00,47.0,-99.9,29.73,North,10,3.0,12.0,-999,-99.99,,,-99.99,,2013-04-01 20:43:00,
2013-04-01 16:52:00,49.0,-99.9,29.74,North,1,-999.0,4.0,-999,-99.99,,,-99.99,,2013-04-01 20:52:00,
2013-04-01 17:33:00,49.0,-99.9,29.74,North,1,-999.0,4.0,-999,-99.99,,,-99.99,,2013-04-01 21:33:00,
2013-04-01 17:44:00,49.0,-99.9,29.74,North,1,-999.0,4.0,-999,-99.99,,,-99.99,,2013-04-01 21:44:00,
2013-04-01 17:52:00,48.0,-99.9,29.76,East,97,9.0,13.0,-999,-99.99,,,-99.99,,2013-04-01 21:52:00,
2013-04-01 18:23:00,48.0,-99.9,29.76,East,97,9.0,13.0,-999,-99.99,,,-99.99,,2013-04-01 22:23:00,
2013-04-01 18:33:00,48.0,-99.9,29.76,East,97,9.0,13.0,-999,-99.99,,,-99.99,,2013-04-01 22:33:00,
2013-04-01 18:43:00,48.0,-99.9,29.76,East,97,9.0,13.0,-999,-99.99,,,-99.99,,2013-04-01 22:43:00,
2013-04-01 18:52:00,46.0,-99.9,29.78,ESE,115,-999.0,10.0,-999,-99.99,,,-99.99,,2013-04-01 22:52:00,
2013-04-01 19:32:00,46.0,-99.9,29.78,ESE,115,-999.0,10.0,-999,-99.99,,,-99.99,,2013-04-01 23:32:00,
2013-04-01 19:43:00,46.0,-99.9,29.78,ESE,115,-999.0,10.0,-999,-99.99,,,-99.99,,2013-04-01 23:43:00,
2013-04-01 19:52:00,40.0,-99.9,29.84,ENE,69,4.0,8.0,-999,-99.99,,,-99.99,,2013-04-01 23:52:00,
2013-04-01 20:33:00,40.0,-99.9,29.84,ENE,69,4.0,8.0,-999,-99.99,,,-99.99,,2013-04-02 00:33:00,
2013-04-01 20:43:00,40.0,-99.9,29.84,ENE,69,4.0,8.0,-999,-99.99,,,-99.99,,2013-04-02 00:43:00,
2013-04-01 20:52:00,37.0,-99.9,29.89,NW,312,-999.0,11.0,-999,-99.99,,,-99.99,,2013-04-02 00:52:00,
2013-04-01 21:22:00,37.0,-99.9,29.89,NW,312,-999.0,11.0,-999,-99.99,,,-99.99,,2013-04-02 01:22:00,
2013-04-01 21:32:00,37.0,-99.9,29.89,NW,312,-999.0,11.0,-999,-99.99,,,-99.99,,2013-04-02 01:32:00,
2013-04-01 21:43:00,37.0,-99.9,29.89,NW,312,-999.0,11.0,-999,-99.99,,,-99.99,,2013-04-02 01:43:00,
2013-04-01 21:52:00,33.0,-99.9,29.92,NE,53,-999.0,-999.0,-999,-99.99,,,-99.99,,2013-04-02 01:52:00,
2013-04-01 22:23:00,33.0,-99.9,29.92,NE,53,-999.0,-999.0,-999,-99.99,,,-99.99,,2013-04-02 02:23:00,
2013-04-01 22:33:00,33.0,-99.9,29.92,NE,53,-999.0,-999.0,-999,-99.99,,,-99.99,,2013-04-02 02:33:00,
2013-04-01 22:43:00,33.0,-99.9,29.92,NE,53,-999.0,-999.0,-999,-99.99,,,-99.99,,2013-04-02 02:43:00,
2013-04-01 22:53:00,31.0,-99.9,29.94,WNW,301,-999.0,-999.0,-999,-99.99,,,-99.99,,2013-04-02 02:53:00,
2013-04-01 23:22:00,31.0,-99.9,29.94,WNW,301,-999.0,-999.0,-999,-99.99,,,-99.99,,2013-04-02 03:22:00,
2013-04-01 23:34:00,31.0,-99.9,29.94,WNW,301,-999.0,-999.0,-999,-99.99,,,-99.99,,2013-04-02 03:34:00,
2013-04-01 23:44:00,31.0,-99.9,29.94,WNW,301,-999.0,-999.0,-999,-99.99,,,-99.99,,2013-04-02 03:44:00,
2013-04-01 23:52:00,30.0,-99.9,29.96,SW,233,-999.0,3.0,-999,-99.99,,,-99.99,,2013-04-02 03:52:00,